This demonstration page uses our WeatherBlox Daily Observations layout. Learn more.

Left ArrowRight Arrow

34.16533, -84.80231

Hourly Observations for April 12, 2016

Temp ( °F °C ) Dew Point ( °F °C ) Humidity (%) Winds ( mph kmh ) Pressure ( in mb ) Visibility ( mi km ) Precip ( " mm )
12:53 am 00:53 Mostly Clear 60 15.6 56 13.3 86 86 S 17 28 30.02 1017 10 16 0.05 1.27
1:53 am 01:53 Clear 59 15 56 13.3 90 90 VRB 5 7 30.02 1017 10 16 0.00 0.00
2:24 am 02:24 Mostly Cloudy 60 15.6 57 13.9 90 90 Calm 30.03 1017 10 16 0.00 0.00
2:53 am 02:53 Cloudy 61 16.1 58 14.4 90 90 S 3 6 30.02 1017 10 16 0.00 0.00
3:32 am 03:32 Partly Cloudy 61 16.1 58 14.4 90 90 VRB 3 6 30.03 1017 10 16 0.00 0.00
3:53 am 03:53 Mostly Cloudy 61 16.1 57 13.9 87 87 S 6 9 30.02 1017 10 16 0.00 0.00
4:01 am 04:01 Cloudy 61 16.1 57 13.9 87 87 S 6 9 30.03 1017 10 16 0.00 0.00
4:53 am 04:53 Cloudy 61 16.1 57 13.9 87 87 VRB 3 6 30.00 1016 10 16 0.00 0.00
5:53 am 05:53 Cloudy with Light Rain 60 15.6 58 14.4 93 93 Calm 30.03 1017 8 13 0.00 0.03
6:53 am 06:53 Cloudy 59 15 58 14.4 96 96 Calm 30.05 1018 9 14 0.02 0.51
7:07 am 07:07 Cloudy with Light Rain 59 15 58 14.4 96 96 Calm 30.06 1018 4 6 0.02 0.51
7:53 am 07:53 Cloudy 59 15 59 15 100 100 Calm 30.07 1018 10 16 0.05 1.27
8:11 am 08:11 Cloudy 60 15.6 59 15 96 96 Calm 30.06 1018 10 16 0.00 0.00
8:23 am 08:23 Cloudy 60 15.6 59 15 96 96 Calm 30.06 1018 10 16 0.00 0.00
8:34 am 08:34 Cloudy 60 15.6 59 15 96 96 Calm 30.06 1018 10 16 0.00 0.00
8:53 am 08:53 Cloudy 60 15.6 59 15 96 96 Calm 30.08 1019 10 16 0.00 0.00
9:32 am 09:32 Cloudy 61 16.1 59 15 93 93 Calm 30.09 1019 10 16 0.00 0.00
9:53 am 09:53 Cloudy 62 16.7 60 15.6 93 93 VRB 3 6 30.10 1019 10 16 0.00 0.00
10:33 am 10:33 Cloudy 64 17.8 60 15.6 87 87 VRB 3 6 30.09 1019 10 16 0.00 0.00
10:48 am 10:48 Cloudy 63 17 59 15 88 88 VRB 6 9 30.09 1019 10 16 0.00 0.00
10:53 am 10:53 Cloudy 64 17.8 59 15 84 84 NNW 3 6 30.10 1019 10 16 0.00 0.00
11:24 am 11:24 Cloudy 63 17.2 58 14.4 84 84 N 7 11 30.09 1019 10 16 0.00 0.00
11:53 am 11:53 Cloudy 63 17.2 57 13.9 81 81 N 6 9 30.11 1020 10 16 0.00 0.00
12:53 pm 12:53 Cloudy 63 17.2 55 12.8 76 76 NNW 9 15 30.11 1020 10 16 0.00 0.00
1:53 pm 13:53 Cloudy 63 17.2 55 12.8 76 76 N 10 17 30.12 1020 10 16 0.00 0.00
2:53 pm 14:53 Cloudy 63 17.2 55 12.8 76 76 VRB 6 9 30.13 1020 10 16 0.00 0.00
3:53 pm 15:53 Partly Cloudy 66 18.9 54 12.2 65 65 NNW 8 13 30.11 1020 10 16 0.00 0.00
4:53 pm 16:53 Mostly Sunny 66 18.9 52 11.1 61 61 VRB 6 9 30.10 1019 10 16 0.00 0.00
5:53 pm 17:53 Sunny 68 20 48 8.9 49 49 VRB 6 9 30.09 1019 10 16 0.00 0.00
6:53 pm 18:53 Sunny 65 18.3 42 5.6 43 43 VRB 7 11 30.11 1020 10 16 0.00 0.00
7:53 pm 19:53 Sunny 62 16.7 40 4.4 44 44 Calm 30.11 1020 10 16 0.00 0.00
8:53 pm 20:53 Clear 53 11.7 45 7.2 74 74 Calm 30.12 1020 10 16 0.00 0.00
9:53 pm 21:53 Clear 54 12.2 45 7.2 72 72 Calm 30.12 1020 10 16 0.00 0.00
10:53 pm 22:53 Clear 53 11.7 44 6.7 72 72 Calm 30.14 1021 10 16 0.00 0.00
11:53 pm 23:53 Clear 48 8.9 44 6.7 86 86 Calm 30.13 1020 10 16 0.00 0.00

Powered by AerisWeather